Location: Palomar Mountain Lodge
(33.3110°N, 116.8495°W)
Time: 14:53:46
(UTC-07:00)

H-2A R/B - Pass Details

Date: 19 May 2017
Orbit: 734 x 837 km, 98.4° (Epoch: 24 May)

Event Time Altitude Azimuth Distance (km) Brightness Sun altitude
Exits shadow 22:38:22 64° 308° (NW) 811 2.2 -28.8°
Drops below altitude 10° 22:42:43 10° 343° (NNW) 2,253 5.3 -29.3°
Sets 22:45:02 0° 346° (NNW) 3,190 6.3 -29.6°
